Hourly Data Report for July 20, 2021

WINNIPEG A CS
MANITOBA
Current Station Operator: ECCC - MSC

49°55'00.000" N
97°14'58.000" W
238.70 m
502S001
71849
XWG

Download Data

Hourly Data (July 2021)
Hourly Data Report for July 20, 2021
TIME
LST
Temp Definition
°C
Dew Point Definition
°C
Rel Hum Definition
%
Precip. Amount Definition
mm

Wind Dir Definition
10's deg

Wind Spd Definition
km/h
Visibility Definition
km
Stn Press Definition
kPa
Hmdx Definition


Wind Chill Definition


Weather Definition


00:00 18.3 15.0 81 0.0 6 14   99.23     LegendNANA
01:00 18.5 14.7 79 0.0 10 14   99.24     LegendNANA
02:00 18.3 14.5 79 0.0 10 15   99.23     LegendNANA
03:00 18.0 14.5 80 0.0 10 19   99.16     LegendNANA
04:00 17.8 14.8 83 0.0 14 9   99.30     LegendNANA
05:00 16.9 15.1 89 2.8 10 13   99.29     LegendNANA
06:00 16.8 15.0 90 0.0 11 11   99.27     LegendNANA
07:00 17.0 15.1 89 0.0 9 12   99.31     LegendNANA
08:00 17.6 15.5 88 0.0 9 17   99.25     LegendNANA
09:00 18.1 15.6 86 0.0 11 15   99.27     LegendNANA
10:00 18.3 15.9 85 0.0 13 8   99.32     LegendNANA
11:00 19.2 16.2 83 0.0 11 10   99.27     LegendNANA
12:00 20.1 16.4 79 0.0 7 18   99.26 25   LegendNANA
13:00 20.3 16.1 77 0.0 8 11   99.28 25   LegendNANA
14:00 20.1 16.9 81 0.4 11 15   99.13 25   LegendNANA
15:00 20.5 17.4 82 0.0 11 15   99.06 26   LegendNANA
16:00 20.8 17.6 82 0.1 13 14   99.07 27   LegendNANA
17:00 20.6 17.9 84 0.0 6 6   99.10 27   LegendNANA
18:00 20.7 17.9 84 0.1 12 8   99.06 27   LegendNANA
19:00 20.5 17.7 84 0.0 11 16   98.98 26   LegendNANA
20:00 20.3 17.5 84 0.0 13 15   99.01 26   LegendNANA
21:00 19.8 17.2 85 0.0 12 21   98.92     LegendNANA
22:00 19.6 17.0 85 0.0 12 14   98.97     LegendNANA
23:00 18.9 17.0 89 0.2 10 12   98.98     LegendNANA

Notes on Data Quality.

Legend

  • E = Estimated
  • M = Missing
  • NA = Not Available*
  • [empty] = Indicates an unobserved value
Date modified: